When you browse on this site, cookies collect data to enhance your experience and personalize the content and advertising you see.
Visit our Privacy Policy to learn more. By continuing to use the site, you agree to this use of cookies and data.
  • In Portugal
  • List of Countries
  • For 7 days
  • Water Temperature
  • Satellite Maps
  • Weather Map
  • Weather Widgets
  • user-avatar
    Login

    Hourly Weather Sucre

    Today, 17 November, Saturday

    Time Temperature Precipitation Wind Pressure Humidity
    00:00 +16°C° 0.3 mm 2 mps 540 mmHg 76%
    01:00 +15°C° 0.3 mm 2 mps 540 mmHg 79%
    02:00 +15°C° 0 mm 2 mps 539 mmHg 81%
    03:00 +15°C° 0.5 mm 2 mps 539 mmHg 83%
    04:00 +14°C° 0.5 mm 2 mps 539 mmHg 85%
    05:00 +14°C° 0.5 mm 2 mps 539 mmHg 87%
    06:00 +15°C° 0.9 mm 2 mps 539 mmHg 83%
    07:00 +15°C° 0.9 mm 2 mps 540 mmHg 79%
    08:00 +16°C° 0 mm 2 mps 541 mmHg 74%
    09:00 +18°C° 0.8 mm 2 mps 541 mmHg 66%
    10:00 +20°C° 0.8 mm 3 mps 542 mmHg 58%
    11:00 +21°C° 0.8 mm 3 mps 542 mmHg 50%
    12:00 +22°C° 0.2 mm 3 mps 542 mmHg 47%
    13:00 +24°C° 0.2 mm 3 mps 542 mmHg 43%
    14:00 +25°C° 0.2 mm 4 mps 542 mmHg 40%
    15:00 +23°C° 1.2 mm 4 mps 541 mmHg 43%
    16:00 +24°C° 1.2 mm 3 mps 540 mmHg 46%
    17:00 +22°C° 1.2 mm 3 mps 540 mmHg 49%
    18:00 +21°C° 0.4 mm 3 mps 540 mmHg 53%
    19:00 +20°C° 0.4 mm 3 mps 540 mmHg 56%
    20:00 +19°C° 0.4 mm 2 mps 540 mmHg 60%
    21:00 +19°C° 0.3 mm 2 mps 540 mmHg 63%
    22:00 +19°C° 0.3 mm 2 mps 540 mmHg 65%
    23:00 +19°C° 0.3 mm 1 mps 541 mmHg 68%

    Tomorrow, 18 November, Sunday

    Time Temperature Precipitation Wind Pressure Humidity
    00:00 +19°C° 0.3 mm 1 mps 540 mmHg 71%
    01:00 +18°C° 0.3 mm 1 mps 540 mmHg 73%
    02:00 +16°C° 0.3 mm 0 mps 539 mmHg 75%
    03:00 +15°C° 0.2 mm 0 mps 539 mmHg 77%
    04:00 +15°C° 0.2 mm 0 mps 539 mmHg 80%
    05:00 +15°C° 0.2 mm 0 mps 539 mmHg 82%
    06:00 +18°C° 0.2 mm 1 mps 540 mmHg 76%
    07:00 +18°C° 0.2 mm 1 mps 541 mmHg 70%
    08:00 +19°C° 0.2 mm 1 mps 542 mmHg 63%
    09:00 +19°C° 1.1 mm 2 mps 542 mmHg 59%
    10:00 +20°C° 1.1 mm 3 mps 543 mmHg 55%
    11:00 +21°C° 1.1 mm 4 mps 544 mmHg 51%
    12:00 +20°C° 2 mm 4 mps 543 mmHg 55%
    13:00 +20°C° 2 mm 4 mps 542 mmHg 59%
    14:00 +19°C° 2 mm 5 mps 542 mmHg 64%
    15:00 +18°C° 1.4 mm 4 mps 541 mmHg 67%
    16:00 +17°C° 1.4 mm 4 mps 541 mmHg 70%
    17:00 +17°C° 1.4 mm 4 mps 541 mmHg 73%
    18:00 +16°C° 0.8 mm 3 mps 541 mmHg 76%
    19:00 +14°C° 0.8 mm 3 mps 541 mmHg 79%
    20:00 +15°C° 0.8 mm 2 mps 541 mmHg 82%
    21:00 +14°C° 0.8 mm 2 mps 541 mmHg 82%
    22:00 +13°C° 0.8 mm 3 mps 541 mmHg 83%
    23:00 +13°C° 0.8 mm 3 mps 542 mmHg 84%

    Day after tomorrow, 19 November, Monday

    Time Temperature Precipitation Wind Pressure Humidity
    00:00 +13°C° 1.1 mm 2 mps 541 mmHg 86%
    01:00 +13°C° 1.1 mm 2 mps 541 mmHg 87%
    02:00 +13°C° 1.1 mm 2 mps 540 mmHg 89%
    03:00 +12°C° 1.3 mm 2 mps 540 mmHg 89%
    04:00 +12°C° 1.3 mm 1 mps 540 mmHg 89%
    05:00 +12°C° 1.3 mm 1 mps 540 mmHg 90%
    06:00 +12°C° 1.4 mm 1 mps 540 mmHg 89%
    07:00 +12°C° 1.4 mm 1 mps 540 mmHg 88%
    08:00 +12°C° 1.4 mm 1 mps 541 mmHg 87%
    09:00 +13°C° 0.7 mm 1 mps 541 mmHg 84%
    10:00 +14°C° 0.7 mm 1 mps 541 mmHg 81%
    11:00 +14°C° 0.7 mm 2 mps 542 mmHg 77%
    12:00 +15°C° 0.1 mm 2 mps 541 mmHg 73%
    13:00 +16°C° 0.1 mm 2 mps 541 mmHg 69%
    14:00 +17°C° 0.1 mm 3 mps 541 mmHg 66%
    15:00 +16°C° 0.1 mm 2 mps 541 mmHg 66%
    16:00 +16°C° 0.1 mm 2 mps 540 mmHg 67%
    17:00 +16°C° 0.1 mm 2 mps 540 mmHg 68%
    18:00 +16°C° 0.1 mm 2 mps 540 mmHg 71%
    19:00 +15°C° 0.1 mm 2 mps 540 mmHg 74%
    20:00 +15°C° 0.1 mm 1 mps 541 mmHg 77%
    21:00 +15°C° 0.1 mm 1 mps 541 mmHg 79%
    22:00 +14°C° 0.1 mm 1 mps 541 mmHg 81%
    23:00 +14°C° 0.1 mm 2 mps 541 mmHg 83%

    20 November, Tuesday

    Time Temperature Precipitation Wind Pressure Humidity
    00:00 +14°C° 0.1 mm 1 mps 541 mmHg 84%
    01:00 +14°C° 0.1 mm 1 mps 540 mmHg 85%
    02:00 +13°C° 0.1 mm 1 mps 540 mmHg 86%
    03:00 +13°C° 0 mm 1 mps 540 mmHg 87%
    04:00 +13°C° 0 mm 1 mps 540 mmHg 88%
    05:00 +13°C° 0 mm 1 mps 540 mmHg 89%
    06:00 +13°C° 0 mm 1 mps 540 mmHg 86%
    07:00 +14°C° 0 mm 1 mps 541 mmHg 83%
    08:00 +14°C° 0 mm 1 mps 541 mmHg 80%
    09:00 +15°C° 0.1 mm 1 mps 541 mmHg 75%
    10:00 +16°C° 0.1 mm 2 mps 542 mmHg 71%
    11:00 +17°C° 0.1 mm 2 mps 542 mmHg 66%
    12:00 +18°C° 0.1 mm 2 mps 542 mmHg 64%
    13:00 +18°C° 0.1 mm 3 mps 542 mmHg 61%
    14:00 +19°C° 0.1 mm 3 mps 541 mmHg 58%
    15:00 +19°C° 0.1 mm 3 mps 541 mmHg 60%
    16:00 +19°C° 0.1 mm 3 mps 541 mmHg 61%
    17:00 +18°C° 0.1 mm 3 mps 540 mmHg 63%
    18:00 +18°C° 0.1 mm 3 mps 540 mmHg 67%
    19:00 +17°C° 0.1 mm 2 mps 540 mmHg 71%
    20:00 +16°C° 0.1 mm 2 mps 541 mmHg 75%
    21:00 +16°C° 0.2 mm 2 mps 541 mmHg 77%
    22:00 +15°C° 0.2 mm 2 mps 541 mmHg 79%
    23:00 +15°C° 0.2 mm 2 mps 542 mmHg 81%

    21 November, Wednesday

    Time Temperature Precipitation Wind Pressure Humidity
    00:00 +15°C° 0.2 mm 2 mps 541 mmHg 83%
    01:00 +14°C° 0.2 mm 1 mps 541 mmHg 84%
    02:00 +14°C° 0.2 mm 1 mps 540 mmHg 85%
    03:00 +14°C° 0 mm 1 mps 540 mmHg 86%
    04:00 +13°C° 0 mm 1 mps 540 mmHg 88%
    05:00 +13°C° 0 mm 1 mps 540 mmHg 89%
    06:00 +14°C° 0 mm 1 mps 541 mmHg 84%
    07:00 +15°C° 0 mm 1 mps 541 mmHg 80%
    08:00 +15°C° 0 mm 1 mps 542 mmHg 75%
    09:00 +18°C° 0 mm 1 mps 542 mmHg 69%
    10:00 +18°C° 0 mm 2 mps 543 mmHg 63%
    11:00 +19°C° 0 mm 2 mps 543 mmHg 57%
    12:00 +20°C° 0 mm 3 mps 543 mmHg 53%
    13:00 +21°C° 0 mm 3 mps 542 mmHg 50%
    14:00 +22°C° 0 mm 3 mps 542 mmHg 46%
    15:00 +22°C° 0 mm 4 mps 541 mmHg 49%
    16:00 +21°C° 0 mm 4 mps 541 mmHg 52%
    17:00 +21°C° 0 mm 5 mps 540 mmHg 55%
    18:00 +19°C° 0.4 mm 4 mps 540 mmHg 61%
    19:00 +18°C° 0.4 mm 3 mps 540 mmHg 67%
    20:00 +17°C° 0.4 mm 2 mps 540 mmHg 73%
    21:00 +17°C° 0.6 mm 2 mps 540 mmHg 75%
    22:00 +16°C° 0.6 mm 2 mps 540 mmHg 77%
    23:00 +16°C° 0.6 mm 1 mps 541 mmHg 79%

    22 November, Thursday

    Time Temperature Precipitation Wind Pressure Humidity
    00:00 +16°C° 0.3 mm 1 mps 540 mmHg 81%
    01:00 +15°C° 0.3 mm 1 mps 540 mmHg 83%
    02:00 +15°C° 0.3 mm 1 mps 539 mmHg 85%
    03:00 +15°C° 0.2 mm 1 mps 539 mmHg 85%
    04:00 +15°C° 0.2 mm 1 mps 539 mmHg 84%
    05:00 +15°C° 0.2 mm 1 mps 539 mmHg 84%
    06:00 +16°C° 0.3 mm 1 mps 540 mmHg 78%
    07:00 +18°C° 0.3 mm 1 mps 540 mmHg 72%
    08:00 +19°C° 0.3 mm 1 mps 541 mmHg 66%
    09:00 +20°C° 0.4 mm 1 mps 541 mmHg 59%
    10:00 +21°C° 0.4 mm 2 mps 542 mmHg 52%
    11:00 +23°C° 0.4 mm 2 mps 542 mmHg 46%
    12:00 +24°C° 0.3 mm 3 mps 542 mmHg 44%
    13:00 +23°C° 0.3 mm 4 mps 542 mmHg 42%
    14:00 +25°C° 0.3 mm 5 mps 542 mmHg 40%
    15:00 +23°C° 0.5 mm 5 mps 541 mmHg 45%
    16:00 +22°C° 0.5 mm 6 mps 540 mmHg 49%
    17:00 +21°C° 0.5 mm 7 mps 540 mmHg 53%
    18:00 +20°C° 1.2 mm 5 mps 540 mmHg 59%
    19:00 +19°C° 1.2 mm 3 mps 540 mmHg 65%
    20:00 +18°C° 1.2 mm 2 mps 540 mmHg 71%
    21:00 +18°C° 0.3 mm 2 mps 540 mmHg 73%
    22:00 +17°C° 0.3 mm 2 mps 540 mmHg 75%
    23:00 +17°C° 0.3 mm 2 mps 539 mmHg 77%
    Show more